Flag for Germany Weather past 2 weeks in Göppingen, Baden-Württemberg, Germany

Now
55 °F

Passing clouds.


Feels Like: 55 °F
Forecast: 50 / 73 °F
Wind: 2 mph from South

Location: Stoetten

Current Time: Aug 28, 2014 at 1:14:06 AM

Latest Report: Aug 28, 2014 at 1:00 AM


Visibility: 5 mi

Pressure: 30.07 "Hg

Humidity: 95%

Dew point: 54 °F

Location of GöppingenLocation

Historic Weather in Göppingen — Graph

°F

Göppingen temperature yesterday

Maximum temperature yesterday: 62 °F (at 6:00 PM)
Minimum temperature yesterday: 52 °F (at 10:00 AM)
Average temperature yesterday: 56 °F

Past Weeks' High & Low Weather Summary

 TemperatureHumidityPressure
High65 °F (Aug 17, 5:00 PM)100% (Aug 16, 9:00 AM)30.19 "Hg (Aug 16, 9:00 AM)
Low44 °F (Aug 24, 3:00 AM)46% (Aug 21, 2:00 PM)29.66 "Hg (Aug 13, 3:00 PM)
Average54 °F80%29.97 "Hg
* Reported Midnight between Aug 12 and Aug 13 — Midnight between Aug 27 and Aug 28, Göppingen, Weather by CustomWeather, © 2014

Note: Actual official high and low records may vary slightly from our data, if they occured in-between our weather recording intervals... More about our weather records

Advertising

Göppingen weather history for previous 24 hours

 ConditionsComfort  
Time TempWeatherWind HumidityBarometerVisibility
12:00 AM
Aug 28
55 °FPassing clouds.2 mph98%30.07 "Hg3 mi
11:00 PM
Aug 27
54 °FFog.2 mph97%30.07 "Hg2 mi
10:00 PM55 °FClear.2 mph95%30.06 "Hg6 mi
9:00 PM55 °FPassing clouds.2 mph88%30.06 "Hg47 mi
8:00 PM59 °FScattered clouds.1 mph76%30.03 "Hg47 mi
7:00 PM62 °FScattered clouds.N/A67%30.01 "Hg47 mi
6:00 PM62 °FScattered clouds.2 mph66%30.01 "Hg47 mi
5:00 PM61 °FScattered clouds.3 mph71%30.01 "Hg47 mi
4:00 PM61 °FScattered clouds.N/A71%30.00 "Hg47 mi
3:00 PM60 °FPartly sunny.3 mph77%30.00 "Hg47 mi
2:00 PM57 °FOvercast.2 mph77%30.01 "Hg47 mi
1:00 PM56 °FOvercast.N/A78%30.00 "Hg47 mi
12:00 PM55 °FOvercast.3 mph91%29.99 "Hg47 mi
11:00 AM55 °FLow clouds.3 mph97%29.97 "Hg25 mi
10:00 AM52 °FLight rain. Low clouds.3 mph100%29.96 "Hg6 mi
9:00 AM54 °FRain. Dense fog.8 mph100%29.91 "Hg0 mi
8:00 AM54 °FLight rain. Dense fog.10 mph100%29.89 "Hg0 mi
7:00 AM54 °FLight rain. Dense fog.7 mph99%29.86 "Hg0 mi
6:00 AM54 °FLight rain. Low clouds.9 mph97%29.84 "Hg5 mi
5:00 AM54 °FOvercast.8 mph98%29.83 "Hg5 mi
4:00 AM54 °FOvercast.8 mph99%29.81 "Hg8 mi
3:00 AM55 °FDrizzle. Low clouds.8 mph100%29.80 "Hg14 mi
2:00 AM55 °FLight rain. Low clouds.8 mph100%29.80 "Hg1 mi
1:00 AM55 °FLow clouds.9 mph100%29.80 "Hg0 mi
Weather by CustomWeather, © 2014

See weather overviewHow to use our weather pages